User: anonymous   Login
Location: Pulvis Stellarum Observatory
(41.6962°N, 71.4263°W)
Time: 18:49:34
(UTC-04:00)
Language:

Cosmos 1758 - Orbit

View from above orbital plane
View from above orbital plane
View from above satellite
View from above satellite

Ground track
Ground track

The orbit data is extracted from the following two-line orbital elements,

1 16791U 86046A   14297.14713914  .00005927  00000-0  45417-3 0  1675
2 16791 082.4714 252.9210 0019242 131.3869 228.9014 15.01533718540371
Epoch (UTC): 24 October 2014 03:31:52
Eccentricity: 0.0019242
inclination: 82.4714°
perigee height: 549 km
apogee height: 575 km
right ascension of ascending node: 252.9210°
argument of perigee: 131.3869°
revolutions per day: 15.01533718
mean anomaly at epoch: 228.9014°
orbit number at epoch: 54037

The dashed part of the orbit path shows where the satellite is in the earth's shadow,  

DLR